Time,TemperatureF,DewpointF,PressureIn,WindDirection,WindDirectionDegrees,WindSpeedMPH,WindSpeedGustMPH,Humidity,HourlyPrecipIn,Conditions,Clouds,dailyrainin,SolarRadiationWatts/m^2,SoftwareType,DateUTC
2013-03-08 00:01:00,16.0,13.0,-100.00,ESE,119,6.0,9.0,86,0.00,,,0.00,0.000000,,2013-03-08 06:01:00,
2013-03-08 00:11:00,13.0,10.0,-100.00,SE,131,7.0,8.0,89,0.00,,,0.00,0.000000,,2013-03-08 06:11:00,
2013-03-08 00:32:00,13.0,10.0,-100.00,SE,131,7.0,8.0,89,0.00,,,0.00,0.000000,,2013-03-08 06:32:00,
2013-03-08 00:42:00,13.0,10.0,-100.00,SE,131,7.0,8.0,89,0.00,,,0.00,0.000000,,2013-03-08 06:42:00,
2013-03-08 00:52:00,13.0,10.0,-100.00,SE,131,7.0,8.0,89,0.00,,,0.00,0.000000,,2013-03-08 06:52:00,
2013-03-08 01:01:00,13.0,10.0,-100.00,SE,131,7.0,8.0,89,0.00,,,0.00,0.000000,,2013-03-08 07:01:00,
2013-03-08 01:11:00,15.0,13.0,-100.00,SE,129,7.0,9.0,90,0.00,,,0.00,0.000000,,2013-03-08 07:11:00,
2013-03-08 01:32:00,15.0,13.0,-100.00,SE,129,7.0,9.0,90,0.00,,,0.00,0.000000,,2013-03-08 07:32:00,
2013-03-08 01:42:00,15.0,13.0,-100.00,SE,129,7.0,9.0,90,0.00,,,0.00,0.000000,,2013-03-08 07:42:00,
2013-03-08 01:52:00,15.0,13.0,-100.00,SE,129,7.0,9.0,90,0.00,,,0.00,0.000000,,2013-03-08 07:52:00,
2013-03-08 02:01:00,15.0,13.0,-100.00,SE,129,7.0,9.0,90,0.00,,,0.00,0.000000,,2013-03-08 08:01:00,
2013-03-08 02:11:00,14.0,12.0,-100.00,ESE,117,6.0,10.0,91,0.00,,,0.00,0.000000,,2013-03-08 08:11:00,
2013-03-08 02:32:00,14.0,12.0,-100.00,ESE,117,6.0,10.0,91,0.00,,,0.00,0.000000,,2013-03-08 08:32:00,
2013-03-08 02:42:00,14.0,12.0,-100.00,ESE,117,6.0,10.0,91,0.00,,,0.00,0.000000,,2013-03-08 08:42:00,
2013-03-08 02:52:00,14.0,12.0,-100.00,ESE,117,6.0,10.0,91,0.00,,,0.00,0.000000,,2013-03-08 08:52:00,
2013-03-08 03:03:00,14.0,12.0,-100.00,ESE,117,6.0,10.0,91,0.00,,,0.00,0.000000,,2013-03-08 09:03:00,
2013-03-08 03:11:00,12.0,10.0,-100.00,SE,127,5.0,7.0,93,0.00,,,0.00,0.000000,,2013-03-08 09:11:00,
2013-03-08 03:32:00,12.0,10.0,-100.00,SE,127,5.0,7.0,93,0.00,,,0.00,0.000000,,2013-03-08 09:32:00,
2013-03-08 03:42:00,12.0,10.0,-100.00,SE,127,5.0,7.0,93,0.00,,,0.00,0.000000,,2013-03-08 09:42:00,
2013-03-08 03:52:00,12.0,10.0,-100.00,SE,127,5.0,7.0,93,0.00,,,0.00,0.000000,,2013-03-08 09:52:00,
2013-03-08 04:01:00,12.0,10.0,-100.00,SE,127,5.0,7.0,93,0.00,,,0.00,0.000000,,2013-03-08 10:01:00,
2013-03-08 04:11:00,12.0,11.0,-100.00,ESE,116,5.0,7.0,94,0.00,,,0.00,0.000000,,2013-03-08 10:11:00,
2013-03-08 04:32:00,12.0,11.0,-100.00,ESE,116,5.0,7.0,94,0.00,,,0.00,0.000000,,2013-03-08 10:32:00,
2013-03-08 04:42:00,12.0,11.0,-100.00,ESE,116,5.0,7.0,94,0.00,,,0.00,0.000000,,2013-03-08 10:42:00,
2013-03-08 04:52:00,12.0,11.0,-100.00,ESE,116,5.0,7.0,94,0.00,,,0.00,0.000000,,2013-03-08 10:52:00,
2013-03-08 05:01:00,12.0,11.0,-100.00,ESE,116,5.0,7.0,94,0.00,,,0.00,0.000000,,2013-03-08 11:01:00,
2013-03-08 05:11:00,15.0,14.0,-100.00,SE,134,8.0,10.0,94,0.00,,,0.00,0.000000,,2013-03-08 11:11:00,
2013-03-08 05:32:00,15.0,14.0,-100.00,SE,134,8.0,10.0,94,0.00,,,0.00,0.000000,,2013-03-08 11:32:00,
2013-03-08 05:42:00,15.0,14.0,-100.00,SE,134,8.0,10.0,94,0.00,,,0.00,0.000000,,2013-03-08 11:42:00,
2013-03-08 05:52:00,15.0,14.0,-100.00,SE,134,8.0,10.0,94,0.00,,,0.00,0.000000,,2013-03-08 11:52:00,
2013-03-08 06:01:00,15.0,14.0,-100.00,SE,134,8.0,10.0,94,0.00,,,0.00,0.000000,,2013-03-08 12:01:00,
2013-03-08 06:11:00,16.0,14.0,-100.00,SE,139,6.0,11.0,92,0.00,,,0.00,0.000000,,2013-03-08 12:11:00,
2013-03-08 06:32:00,16.0,14.0,-100.00,SE,139,6.0,11.0,92,0.00,,,0.00,0.000000,,2013-03-08 12:32:00,
2013-03-08 06:43:00,16.0,14.0,-100.00,SE,139,6.0,11.0,92,0.00,,,0.00,0.000000,,2013-03-08 12:43:00,
2013-03-08 06:53:00,16.0,14.0,-100.00,SE,139,6.0,11.0,92,0.00,,,0.00,0.000000,,2013-03-08 12:53:00,
2013-03-08 07:01:00,16.0,14.0,-100.00,SE,139,6.0,11.0,92,0.00,,,0.00,0.000000,,2013-03-08 13:01:00,
2013-03-08 07:11:00,15.0,13.0,-100.00,SE,135,6.0,10.0,91,0.00,,,-99.99,10.000000,,2013-03-08 13:11:00,
2013-03-08 07:42:00,15.0,13.0,-100.00,SE,135,6.0,10.0,91,0.00,,,-99.99,10.000000,,2013-03-08 13:42:00,
2013-03-08 07:52:00,15.0,13.0,-100.00,SE,135,6.0,10.0,91,0.00,,,-99.99,10.000000,,2013-03-08 13:52:00,
2013-03-08 08:02:00,15.0,13.0,-100.00,SE,135,6.0,10.0,91,0.00,,,-99.99,10.000000,,2013-03-08 14:02:00,
2013-03-08 08:11:00,19.0,16.0,-100.00,SE,134,7.0,9.0,88,0.00,,,0.00,129.000000,,2013-03-08 14:11:00,
2013-03-08 08:32:00,19.0,16.0,-100.00,SE,134,7.0,9.0,88,0.00,,,0.00,129.000000,,2013-03-08 14:32:00,
2013-03-08 08:42:00,19.0,16.0,-100.00,SE,134,7.0,9.0,88,0.00,,,0.00,129.000000,,2013-03-08 14:42:00,
2013-03-08 08:52:00,19.0,16.0,-100.00,SE,134,7.0,9.0,88,0.00,,,0.00,129.000000,,2013-03-08 14:52:00,
2013-03-08 09:03:00,19.0,16.0,-100.00,SE,134,7.0,9.0,88,0.00,,,0.00,129.000000,,2013-03-08 15:03:00,
2013-03-08 09:11:00,21.0,17.0,-100.00,SSE,160,10.0,12.0,83,0.00,,,0.00,333.000000,,2013-03-08 15:11:00,
2013-03-08 09:32:00,21.0,17.0,-100.00,SSE,160,10.0,12.0,83,0.00,,,0.00,333.000000,,2013-03-08 15:32:00,
2013-03-08 09:43:00,21.0,17.0,-100.00,SSE,160,10.0,12.0,83,0.00,,,0.00,333.000000,,2013-03-08 15:43:00,
2013-03-08 09:53:00,21.0,17.0,-100.00,SSE,160,10.0,12.0,83,0.00,,,0.00,333.000000,,2013-03-08 15:53:00,
2013-03-08 10:01:00,21.0,17.0,-100.00,SSE,160,10.0,12.0,83,0.00,,,0.00,333.000000,,2013-03-08 16:01:00,
2013-03-08 10:11:00,25.0,19.0,-100.00,SSE,154,9.0,11.0,78,0.00,,,0.00,468.000000,,2013-03-08 16:11:00,
2013-03-08 10:32:00,25.0,19.0,-100.00,SSE,154,9.0,11.0,78,0.00,,,0.00,468.000000,,2013-03-08 16:32:00,
2013-03-08 10:42:00,25.0,19.0,-100.00,SSE,154,9.0,11.0,78,0.00,,,0.00,468.000000,,2013-03-08 16:42:00,
2013-03-08 10:52:00,25.0,19.0,-100.00,SSE,154,9.0,11.0,78,0.00,,,0.00,468.000000,,2013-03-08 16:52:00,
2013-03-08 11:02:00,25.0,19.0,-100.00,SSE,154,9.0,11.0,78,0.00,,,0.00,468.000000,,2013-03-08 17:02:00,
2013-03-08 11:11:00,29.0,22.0,-100.00,SSE,156,8.0,13.0,74,0.00,,,0.00,675.000000,,2013-03-08 17:11:00,
2013-03-08 11:32:00,29.0,22.0,-100.00,SSE,156,8.0,13.0,74,0.00,,,0.00,675.000000,,2013-03-08 17:32:00,
2013-03-08 11:42:00,29.0,22.0,-100.00,SSE,156,8.0,13.0,74,0.00,,,0.00,675.000000,,2013-03-08 17:42:00,
2013-03-08 11:52:00,29.0,22.0,-100.00,SSE,156,8.0,13.0,74,0.00,,,0.00,675.000000,,2013-03-08 17:52:00,
2013-03-08 12:02:00,29.0,22.0,-100.00,SSE,156,8.0,13.0,74,0.00,,,0.00,675.000000,,2013-03-08 18:02:00,
2013-03-08 12:11:00,30.0,22.0,-100.00,SE,141,8.0,10.0,73,0.00,,,0.00,657.000000,,2013-03-08 18:11:00,
2013-03-08 12:32:00,30.0,22.0,-100.00,SE,141,8.0,10.0,73,0.00,,,0.00,657.000000,,2013-03-08 18:32:00,
2013-03-08 12:42:00,30.0,22.0,-100.00,SE,141,8.0,10.0,73,0.00,,,0.00,657.000000,,2013-03-08 18:42:00,
2013-03-08 12:52:00,30.0,22.0,-100.00,SE,141,8.0,10.0,73,0.00,,,0.00,657.000000,,2013-03-08 18:52:00,
2013-03-08 13:01:00,30.0,22.0,-100.00,SE,141,8.0,10.0,73,0.00,,,0.00,657.000000,,2013-03-08 19:01:00,
2013-03-08 13:11:00,33.0,24.0,-100.00,ESE,110,7.0,12.0,68,0.01,,,0.01,707.000000,,2013-03-08 19:11:00,
2013-03-08 13:42:00,33.0,24.0,-100.00,ESE,110,7.0,12.0,68,0.01,,,0.01,707.000000,,2013-03-08 19:42:00,
2013-03-08 13:52:00,33.0,24.0,-100.00,ESE,110,7.0,12.0,68,0.01,,,0.01,707.000000,,2013-03-08 19:52:00,
2013-03-08 14:01:00,33.0,24.0,-100.00,ESE,110,7.0,12.0,68,0.01,,,0.01,707.000000,,2013-03-08 20:01:00,
2013-03-08 14:11:00,34.0,25.0,-100.00,East,94,7.0,10.0,68,0.00,,,0.01,678.000000,,2013-03-08 20:11:00,
2013-03-08 14:32:00,34.0,25.0,-100.00,East,94,7.0,10.0,68,0.00,,,0.01,678.000000,,2013-03-08 20:32:00,
2013-03-08 14:42:00,34.0,25.0,-100.00,East,94,7.0,10.0,68,0.00,,,0.01,678.000000,,2013-03-08 20:42:00,
2013-03-08 14:53:00,34.0,25.0,-100.00,East,94,7.0,10.0,68,0.00,,,0.01,678.000000,,2013-03-08 20:53:00,
2013-03-08 15:02:00,34.0,25.0,-100.00,East,94,7.0,10.0,68,0.00,,,0.01,678.000000,,2013-03-08 21:02:00,
2013-03-08 15:11:00,33.0,25.0,-100.00,ENE,77,8.0,10.0,72,0.00,,,0.01,539.000000,,2013-03-08 21:11:00,
2013-03-08 15:33:00,33.0,25.0,-100.00,ENE,77,8.0,10.0,72,0.00,,,0.01,539.000000,,2013-03-08 21:33:00,
2013-03-08 15:42:00,33.0,25.0,-100.00,ENE,77,8.0,10.0,72,0.00,,,0.01,539.000000,,2013-03-08 21:42:00,
2013-03-08 15:52:00,33.0,25.0,-100.00,ENE,77,8.0,10.0,72,0.00,,,0.01,539.000000,,2013-03-08 21:52:00,
2013-03-08 16:01:00,33.0,25.0,-100.00,ENE,77,8.0,10.0,72,0.00,,,0.01,539.000000,,2013-03-08 22:01:00,
2013-03-08 16:11:00,33.0,26.0,-100.00,East,83,8.0,12.0,75,0.00,,,0.01,367.000000,,2013-03-08 22:11:00,
2013-03-08 16:42:00,33.0,26.0,-100.00,East,83,8.0,12.0,75,0.00,,,0.01,367.000000,,2013-03-08 22:42:00,
2013-03-08 16:53:00,33.0,26.0,-100.00,East,83,8.0,12.0,75,0.00,,,0.01,367.000000,,2013-03-08 22:53:00,
2013-03-08 17:01:00,33.0,26.0,-100.00,East,83,8.0,12.0,75,0.00,,,0.01,367.000000,,2013-03-08 23:01:00,
2013-03-08 17:11:00,33.0,26.0,-100.00,East,91,8.0,11.0,76,0.00,,,0.01,193.000000,,2013-03-08 23:11:00,
2013-03-08 17:42:00,33.0,26.0,-100.00,East,91,8.0,11.0,76,0.00,,,0.01,193.000000,,2013-03-08 23:42:00,
2013-03-08 17:53:00,33.0,26.0,-100.00,East,91,8.0,11.0,76,0.00,,,0.01,193.000000,,2013-03-08 23:53:00,
2013-03-08 18:02:00,33.0,26.0,-100.00,East,91,8.0,11.0,76,0.00,,,0.01,193.000000,,2013-03-09 00:02:00,
2013-03-08 18:11:00,31.0,26.0,-100.00,ESE,102,8.0,11.0,81,0.00,,,0.01,63.000000,,2013-03-09 00:11:00,
2013-03-08 18:42:00,31.0,26.0,-100.00,ESE,102,8.0,11.0,81,0.00,,,0.01,63.000000,,2013-03-09 00:42:00,
2013-03-08 18:52:00,31.0,26.0,-100.00,ESE,102,8.0,11.0,81,0.00,,,0.01,63.000000,,2013-03-09 00:52:00,
2013-03-08 19:01:00,31.0,26.0,-100.00,ESE,102,8.0,11.0,81,0.00,,,0.01,63.000000,,2013-03-09 01:01:00,
2013-03-08 21:11:00,30.0,27.0,-100.00,ESE,107,10.0,14.0,89,-99.99,,,0.01,0.000000,,2013-03-09 03:11:00,
2013-03-08 21:32:00,30.0,27.0,-100.00,ESE,107,10.0,14.0,89,-99.99,,,0.01,0.000000,,2013-03-09 03:32:00,
2013-03-08 21:42:00,30.0,27.0,-100.00,ESE,107,10.0,14.0,89,-99.99,,,0.01,0.000000,,2013-03-09 03:42:00,
2013-03-08 21:52:00,30.0,27.0,-100.00,ESE,107,10.0,14.0,89,-99.99,,,0.01,0.000000,,2013-03-09 03:52:00,
2013-03-08 22:01:00,30.0,27.0,-100.00,ESE,107,10.0,14.0,89,-99.99,,,0.01,0.000000,,2013-03-09 04:01:00,
2013-03-08 22:11:00,31.0,28.0,-100.00,ESE,116,10.0,15.0,87,0.00,,,0.01,0.000000,,2013-03-09 04:11:00,
2013-03-08 22:32:00,31.0,28.0,-100.00,ESE,116,10.0,15.0,87,0.00,,,0.01,0.000000,,2013-03-09 04:32:00,
2013-03-08 22:42:00,31.0,28.0,-100.00,ESE,116,10.0,15.0,87,0.00,,,0.01,0.000000,,2013-03-09 04:42:00,
2013-03-08 22:52:00,31.0,28.0,-100.00,ESE,116,10.0,15.0,87,0.00,,,0.01,0.000000,,2013-03-09 04:52:00,
2013-03-08 23:02:00,31.0,28.0,-100.00,ESE,116,10.0,15.0,87,0.00,,,0.01,0.000000,,2013-03-09 05:02:00,
2013-03-08 23:11:00,32.0,28.0,-100.00,ESE,115,9.0,14.0,86,0.00,,,0.01,0.000000,,2013-03-09 05:11:00,
2013-03-08 23:32:00,32.0,28.0,-100.00,ESE,115,9.0,14.0,86,0.00,,,0.01,0.000000,,2013-03-09 05:32:00,
2013-03-08 23:43:00,32.0,28.0,-100.00,ESE,115,9.0,14.0,86,0.00,,,0.01,0.000000,,2013-03-09 05:43:00,
2013-03-08 23:53:00,32.0,28.0,-100.00,ESE,115,9.0,14.0,86,0.00,,,0.01,0.000000,,2013-03-09 05:53:00,